Le nostre stazioni meteo in Italia

Pubblicità
Il mio iltempo24.it
Kielder Castle, Gran Bretagna (99186): Temperatura & dewpoint: 13.08.2018 09:00:00 - 19.08.2018 09:00:00 (BST)Kielder Castle, Gran Bretagna (99186): Temperatura -20cm & Temperatura -100cm: 13.08.2018 09:00:00 - 19.08.2018 09:00:00 (BST)Kielder Castle, Gran Bretagna (99186): precipitazioni: 13.08.2018 09:00:00 - 19.08.2018 09:00:00 (BST)
Data & Tempo tt [°C] td [°C] tt -20cm [°C] tt -100cm [°C] rr [mm]
19.08.2018 09:00:00 15,9 15,6 - - -
19.08.2018 08:00:00 15,8 15,7 - - 0,4
19.08.2018 07:00:00 15,7 15,5 - - 1,6
19.08.2018 06:00:00 15,6 15,4 - - 2,2
19.08.2018 05:00:00 15,4 15,1 - - 3,2
19.08.2018 04:00:00 15,2 14,9 - - 2,0
19.08.2018 03:00:00 15,2 15,0 - - 1,4
19.08.2018 02:00:00 15,0 14,8 - - 1,2
19.08.2018 01:00:00 14,9 14,5 - - 0,0
19.08.2018 00:00:00 15,5 14,8 - - 0,0
18.08.2018 23:00:00 15,7 14,8 - - 0,0
18.08.2018 22:00:00 15,9 14,9 - - 0,0
18.08.2018 21:00:00 16,0 14,8 - - 0,0
18.08.2018 20:00:00 16,3 14,8 - - 0,0
18.08.2018 19:00:00 16,6 15,1 - - 0,0
18.08.2018 18:00:00 16,5 14,9 - - 0,0
18.08.2018 17:00:00 17,1 15,4 - - 0,0
18.08.2018 16:00:00 15,7 14,9 - - 0,0
18.08.2018 15:00:00 15,5 14,9 - - 0,2
18.08.2018 14:00:00 15,5 14,9 - - 0,2
18.08.2018 13:00:00 16,2 15,6 - - 0,8
18.08.2018 12:00:00 15,2 14,7 - - 0,8
18.08.2018 11:00:00 15,1 14,4 - - 0,4
18.08.2018 10:00:00 14,8 14,2 16,5 15,9 0,4
18.08.2018 09:00:00 14,6 14,1 - - 0,0
18.08.2018 08:00:00 14,3 13,4 - - 0,0
18.08.2018 07:00:00 13,9 13,0 - - 0,0
18.08.2018 06:00:00 14,2 13,4 - - 0,0
18.08.2018 05:00:00 14,2 13,6 - - 0,2
18.08.2018 04:00:00 14,2 13,7 - - 0,0
18.08.2018 03:00:00 14,2 13,4 - - 0,0
18.08.2018 02:00:00 14,2 13,8 - - 0,2
18.08.2018 01:00:00 14,2 13,9 - - 0,4
18.08.2018 00:00:00 14,3 14,0 - - 0,8
17.08.2018 23:00:00 14,2 13,9 - - 1,0
17.08.2018 22:00:00 14,1 13,7 - - 1,6
17.08.2018 21:00:00 13,8 13,5 - - 0,8
17.08.2018 20:00:00 13,4 13,0 - - 0,4
17.08.2018 19:00:00 13,1 12,8 - - 0,2
17.08.2018 18:00:00 13,0 12,6 - - 0,4
17.08.2018 17:00:00 12,8 12,3 - - 0,6
17.08.2018 16:00:00 12,5 11,8 - - 0,2
17.08.2018 15:00:00 12,3 11,6 - - 0,4
17.08.2018 14:00:00 12,4 11,6 - - 0,0
17.08.2018 13:00:00 13,2 10,9 - - 0,0
17.08.2018 12:00:00 12,9 11,8 - - 0,4
17.08.2018 11:00:00 12,2 10,6 - - 0,0
17.08.2018 10:00:00 12,0 9,5 16,9 16,0 0,0
17.08.2018 09:00:00 11,8 9,9 - - 0,0
17.08.2018 08:00:00 11,3 9,8 - - 0,0
17.08.2018 07:00:00 11,0 9,4 - - 0,0
17.08.2018 06:00:00 10,6 9,6 - - 0,0
17.08.2018 05:00:00 10,4 9,5 - - 0,0
17.08.2018 04:00:00 9,6 8,7 - - 0,2
17.08.2018 03:00:00 10,1 9,3 - - 0,0
17.08.2018 02:00:00 9,9 9,2 - - 0,0
17.08.2018 01:00:00 10,5 9,7 - - 0,0
17.08.2018 00:00:00 10,9 9,7 - - 0,0
16.08.2018 23:00:00 10,4 9,5 - - 0,0
16.08.2018 22:00:00 10,8 9,7 - - 0,0
16.08.2018 21:00:00 11,3 10,5 - - 0,0
16.08.2018 20:00:00 11,9 10,9 - - 0,0
16.08.2018 19:00:00 12,8 11,4 - - 0,0
16.08.2018 18:00:00 12,2 11,7 - - 2,8
16.08.2018 17:00:00 12,8 11,2 - - 1,0
16.08.2018 16:00:00 15,4 11,5 - - 0,0
16.08.2018 15:00:00 13,6 11,5 - - 0,6
16.08.2018 14:00:00 12,4 11,1 - - 1,0
16.08.2018 13:00:00 12,7 10,8 - - 0,6
16.08.2018 12:00:00 13,4 10,8 - - 0,0
16.08.2018 11:00:00 13,3 11,9 - - 0,6
16.08.2018 10:00:00 12,7 9,5 17,5 15,9 0,0
16.08.2018 09:00:00 11,8 10,3 - - 0,0
16.08.2018 08:00:00 10,2 9,6 - - 0,0
16.08.2018 07:00:00 10,4 9,9 - - 0,0
16.08.2018 06:00:00 11,8 10,8 - - 0,0
16.08.2018 05:00:00 12,9 12,4 - - 0,6
16.08.2018 04:00:00 13,1 12,5 - - 0,0
16.08.2018 03:00:00 13,6 12,6 - - 0,4
16.08.2018 02:00:00 13,8 13,0 - - 0,0
16.08.2018 01:00:00 13,8 13,2 - - 0,2
16.08.2018 00:00:00 14,0 13,4 - - 0,8
15.08.2018 23:00:00 14,4 13,8 - - 0,2
15.08.2018 22:00:00 14,3 13,7 - - 0,0
15.08.2018 21:00:00 14,6 14,2 - - 0,6
15.08.2018 20:00:00 14,3 13,5 - - 1,4
15.08.2018 19:00:00 15,8 15,3 - - 0,4
15.08.2018 18:00:00 16,1 15,5 - - 4,4
15.08.2018 17:00:00 16,3 15,0 - - 0,6
15.08.2018 16:00:00 18,4 15,1 - - 0,0
15.08.2018 15:00:00 18,9 15,2 - - 0,0
15.08.2018 14:00:00 18,5 15,4 - - 0,0
15.08.2018 13:00:00 17,7 16,1 - - 0,0
15.08.2018 12:00:00 16,8 15,2 - - 0,0
15.08.2018 11:00:00 16,1 15,2 - - 0,0
15.08.2018 10:00:00 15,3 14,7 17,5 15,9 0,4
15.08.2018 09:00:00 15,1 14,7 - - 0,4
15.08.2018 08:00:00 14,8 14,5 - - 0,6
15.08.2018 07:00:00 14,9 14,4 - - 0,2
15.08.2018 06:00:00 14,9 14,4 - - 0,8
15.08.2018 05:00:00 14,9 14,4 - - 0,6
15.08.2018 04:00:00 15,0 14,4 - - 0,4
15.08.2018 03:00:00 15,6 15,1 - - 1,2
15.08.2018 02:00:00 15,7 15,2 - - 0,4
15.08.2018 01:00:00 15,5 15,0 - - 0,2
15.08.2018 00:00:00 15,7 15,1 - - 0,0
14.08.2018 23:00:00 15,7 15,1 - - 0,2
14.08.2018 22:00:00 15,7 15,1 - - 0,0
14.08.2018 21:00:00 15,8 15,1 - - 0,0
14.08.2018 20:00:00 15,5 15,0 - - 0,0
14.08.2018 19:00:00 15,4 14,8 - - 0,0
14.08.2018 18:00:00 15,7 14,7 - - 0,2
14.08.2018 17:00:00 16,1 14,5 - - 0,0
14.08.2018 16:00:00 15,6 14,5 - - 0,0
14.08.2018 15:00:00 15,5 13,9 - - 0,0
14.08.2018 14:00:00 15,9 14,2 - - 0,4
14.08.2018 13:00:00 16,4 13,7 - - 0,0
14.08.2018 12:00:00 15,6 13,4 - - 0,0
14.08.2018 11:00:00 15,3 12,9 - - 0,0
14.08.2018 10:00:00 15,0 12,8 17,7 15,9 0,0
14.08.2018 09:00:00 14,9 12,9 - - 0,0
14.08.2018 08:00:00 14,1 12,7 - - 0,0
14.08.2018 07:00:00 12,8 12,5 - - 0,0
14.08.2018 06:00:00 12,2 11,7 - - 0,0
14.08.2018 05:00:00 12,8 11,8 - - 0,0
14.08.2018 04:00:00 13,5 12,6 - - 0,0
14.08.2018 03:00:00 14,0 12,5 - - 0,0
14.08.2018 02:00:00 14,1 13,8 - - 0,0
14.08.2018 01:00:00 14,2 13,8 - - 0,0
14.08.2018 00:00:00 14,3 13,8 - - 0,0
13.08.2018 23:00:00 14,9 14,4 - - 0,0
13.08.2018 22:00:00 15,4 14,6 - - 0,0
13.08.2018 21:00:00 16,0 14,8 - - 0,0
13.08.2018 20:00:00 16,6 14,6 - - 0,0
13.08.2018 19:00:00 17,6 15,4 - - 0,0
13.08.2018 18:00:00 18,3 15,3 - - 0,0
13.08.2018 17:00:00 17,3 15,5 - - 0,0
13.08.2018 16:00:00 18,3 15,4 - - 0,0
13.08.2018 15:00:00 19,4 15,3 - - 0,0
13.08.2018 14:00:00 19,3 15,0 - - 0,0
13.08.2018 13:00:00 17,7 15,7 - - 0,0
13.08.2018 12:00:00 17,2 15,6 - - 0,0
13.08.2018 11:00:00 16,2 15,4 - - 0,0
13.08.2018 10:00:00 15,7 15,2 17,5 15,9 0,0
13.08.2018 09:00:00 15,1 14,9 - - 0,0

tt = Temperatura
td = dewpoint
tt -20cm = Temperatura -20cm
tt -100cm = Temperatura -100cm
rr = precipitazioni

Stazioni seguenti

WeatherPro
AMSI
MeteoEarth